| time (UTC) | temp F | wind direction | speed knots | gust knots | rain 1hr in | rain 24hr in | rain mn in | humidity % | barometer mb |
| 20260503034003 | 66 | 326 | 0.0 | 1.7 | 0.00 | 0.00 | 0.00 | 57 | 1013.9 |
| 20260503033505 | 66 | 298 | 0.0 | 3.5 | 0.00 | 0.00 | 0.00 | 56 | 1013.9 |
| 20260503033022 | 66 | 304 | 0.0 | 4.3 | 0.00 | 0.00 | 0.00 | 56 | 1013.9 |
| 20260503032503 | 66 | 243 | 1.7 | 4.3 | 0.00 | 0.00 | 0.00 | 55 | 1013.8 |
| 20260503032002 | 67 | 274 | 0.9 | 4.3 | 0.00 | 0.00 | 0.00 | 55 | 1013.8 |
| 20260503031513 | 67 | 244 | 1.7 | 4.3 | 0.00 | 0.00 | 0.00 | 55 | 1013.8 |
| 20260503031003 | 67 | 257 | 0.9 | 3.5 | 0.00 | 0.00 | 0.00 | 55 | 1013.7 |
| 20260503030502 | 68 | 267 | 1.7 | 5.2 | 0.00 | 0.00 | 0.00 | 54 | 1013.7 |
| 20260503030022 | 68 | 246 | 0.9 | 5.2 | 0.00 | 0.00 | 0.00 | 54 | 1013.7 |
| 20260503025504 | 68 | 231 | 0.9 | 3.5 | 0.00 | 0.00 | 0.00 | 54 | 1013.7 |
| 20260503025003 | 68 | 265 | 0.9 | 4.3 | 0.00 | 0.00 | 0.00 | 54 | 1013.6 |
| 20260503024510 | 69 | 275 | 1.7 | 5.2 | 0.00 | 0.00 | 0.00 | 53 | 1013.6 |
| 20260503024004 | 69 | 293 | 1.7 | 5.2 | 0.00 | 0.00 | 0.00 | 53 | 1013.6 |
| 20260503023504 | 69 | 284 | 0.9 | 4.3 | 0.00 | 0.00 | 0.00 | 52 | 1013.5 |
| 20260503023014 | 69 | 288 | 1.7 | 8.7 | 0.00 | 0.00 | 0.00 | 52 | 1013.5 |
| 20260503022504 | 69 | 295 | 3.5 | 8.7 | 0.00 | 0.00 | 0.00 | 52 | 1013.5 |
| 20260503022005 | 70 | 267 | 2.6 | 6.1 | 0.00 | 0.00 | 0.00 | 53 | 1013.4 |
| 20260503021512 | 70 | 261 | 2.6 | 8.7 | 0.00 | 0.00 | 0.00 | 53 | 1013.4 |
| 20260503021006 | 70 | 266 | 4.3 | 8.7 | 0.00 | 0.00 | 0.00 | 53 | 1013.4 |
| 20260503020503 | 70 | 194 | 4.3 | 6.1 | 0.00 | 0.00 | 0.00 | 53 | 1013.4 |
| 20260503020016 | 70 | 290 | 0.9 | 5.2 | 0.00 | 0.00 | 0.00 | 54 | 1013.4 |
| 20260503015504 | 70 | 291 | 2.6 | 6.1 | 0.00 | 0.00 | 0.00 | 55 | 1013.4 |
| 20260503015007 | 70 | 290 | 2.6 | 6.1 | 0.00 | 0.00 | 0.00 | 54 | 1013.4 |
| 20260503014512 | 70 | 277 | 2.6 | 7.0 | 0.00 | 0.00 | 0.00 | 55 | 1013.5 |
| 20260503014006 | 70 | 281 | 3.5 | 8.7 | 0.00 | 0.00 | 0.00 | 55 | 1013.6 |
| 20260503013506 | 70 | 209 | 1.7 | 8.7 | 0.00 | 0.00 | 0.00 | 54 | 1013.6 |
| 20260503013010 | 70 | 269 | 2.6 | 7.8 | 0.00 | 0.00 | 0.00 | 55 | 1013.6 |
| 20260503012506 | 71 | 267 | 1.7 | 6.1 | 0.00 | 0.00 | 0.00 | 55 | 1013.7 |
| 20260503012006 | 71 | 277 | 3.5 | 7.0 | 0.00 | 0.00 | 0.00 | 55 | 1013.6 |
| 20260503011513 | 71 | 292 | 2.6 | 10.4 | 0.00 | 0.00 | 0.00 | 55 | 1013.7 |
| 20260503011008 | 71 | 238 | 3.5 | 10.4 | 0.00 | 0.00 | 0.00 | 54 | 1013.7 |
| 20260503010509 | 71 | 265 | 2.6 | 7.8 | 0.00 | 0.00 | 0.00 | 54 | 1013.7 |
| 20260503010019 | 71 | 322 | 3.5 | 8.7 | 0.00 | 0.00 | 0.00 | 54 | 1013.7 |
| 20260503005506 | 71 | 275 | 4.3 | 8.7 | 0.00 | 0.00 | 0.00 | 54 | 1013.7 |
| 20260503005007 | 71 | 299 | 4.3 | 8.7 | 0.00 | 0.00 | 0.00 | 55 | 1013.7 |
| 20260503004519 | 71 | 236 | 3.5 | 8.7 | 0.00 | 0.00 | 0.00 | 54 | 1013.8 |
| 20260503004006 | 72 | 272 | 2.6 | 8.7 | 0.00 | 0.00 | 0.00 | 53 | 1013.7 |
| 20260503003505 | 72 | 267 | 1.7 | 9.6 | 0.00 | 0.00 | 0.00 | 53 | 1013.7 |
| 20260503003014 | 72 | 268 | 5.2 | 12.2 | 0.00 | 0.00 | 0.00 | 52 | 1013.8 |
| 20260503002506 | 72 | 322 | 1.7 | 12.2 | 0.00 | 0.00 | 0.00 | 53 | 1013.8 |
| 20260503002005 | 72 | 286 | 4.3 | 12.2 | 0.00 | 0.00 | 0.00 | 53 | 1013.8 |
| 20260503001517 | 73 | 215 | 3.5 | 8.7 | 0.00 | 0.00 | 0.00 | 53 | 1013.8 |
| 20260503001006 | 73 | 277 | 2.6 | 8.7 | 0.00 | 0.00 | 0.00 | 54 | 1013.8 |
| 20260503000507 | 73 | 230 | 2.6 | 7.8 | 0.00 | 0.00 | 0.00 | 56 | 1013.9 |
| 20260503000028 | 73 | 232 | 2.6 | 8.7 | 0.00 | 0.00 | 0.00 | 54 | 1013.9 |
| 20260502235505 | 73 | 283 | 4.3 | 8.7 | 0.00 | 0.00 | 0.00 | 53 | 1013.9 |
| 20260502235006 | 73 | 267 | 2.6 | 8.7 | 0.00 | 0.00 | 0.00 | 53 | 1014.0 |
| 20260502234520 | 73 | 268 | 3.5 | 8.7 | 0.00 | 0.00 | 0.00 | 54 | 1014.1 |
| 20260502234009 | 73 | 281 | 5.2 | 11.3 | 0.00 | 0.00 | 0.00 | 54 | 1014.2 |
| 20260502233508 | 73 | 307 | 3.5 | 12.2 | 0.00 | 0.00 | 0.00 | 54 | 1014.3 |
| 20260502233020 | 74 | 306 | 4.3 | 12.2 | 0.00 | 0.00 | 0.00 | 54 | 1014.3 |
| 20260502232505 | 73 | 275 | 2.6 | 8.7 | 0.00 | 0.00 | 0.00 | 56 | 1014.4 |
| 20260502232006 | 73 | 260 | 2.6 | 8.7 | 0.00 | 0.00 | 0.00 | 55 | 1014.4 |
| 20260502231520 | 73 | 285 | 3.5 | 8.7 | 0.00 | 0.00 | 0.00 | 55 | 1014.5 |
| 20260502231008 | 74 | 250 | 4.3 | 8.7 | 0.00 | 0.00 | 0.00 | 55 | 1014.6 |
| 20260502230504 | 74 | 275 | 3.5 | 9.6 | 0.00 | 0.00 | 0.00 | 54 | 1014.7 |
| 20260502230008 | 74 | 314 | 3.5 | 9.6 | 0.00 | 0.00 | 0.00 | 54 | 1014.7 |
| 20260502225502 | 75 | 292 | 4.3 | 10.4 | 0.00 | 0.00 | 0.00 | 54 | 1014.8 |
| 20260502225006 | 74 | 312 | 4.3 | 10.4 | 0.00 | 0.00 | 0.00 | 54 | 1014.9 |
| 20260502224506 | 74 | 294 | 3.5 | 10.4 | 0.00 | 0.00 | 0.00 | 54 | 1015.0 |
| 20260502224003 | 75 | 292 | 4.3 | 10.4 | 0.00 | 0.00 | 0.00 | 55 | 1015.1 |
| 20260502223503 | 74 | 303 | 2.6 | 8.7 | 0.00 | 0.00 | 0.00 | 57 | 1015.1 |
| 20260502223010 | 74 | 282 | 3.5 | 8.7 | 0.00 | 0.00 | 0.00 | 56 | 1015.2 |
| 20260502222503 | 74 | 269 | 4.3 | 9.6 | 0.00 | 0.00 | 0.00 | 58 | 1015.3 |
| 20260502222005 | 74 | 265 | 5.2 | 9.6 | 0.00 | 0.00 | 0.00 | 54 | 1015.5 |
| 20260502221512 | 73 | 288 | 4.3 | 9.6 | 0.00 | 0.00 | 0.00 | 59 | 1015.5 |
| 20260502221004 | 73 | 187 | 4.3 | 10.4 | 0.00 | 0.00 | 0.00 | 56 | 1015.5 |
| 20260502220503 | 73 | 94 | 2.6 | 10.4 | 0.00 | 0.00 | 0.00 | 56 | 1015.5 |
| 20260502220013 | 73 | 233 | 4.3 | 9.6 | 0.00 | 0.00 | 0.00 | 57 | 1015.5 |
| 20260502215509 | 74 | 283 | 2.6 | 9.6 | 0.00 | 0.00 | 0.00 | 56 | 1015.6 |
| 20260502215005 | 73 | 244 | 3.5 | 9.6 | 0.00 | 0.00 | 0.00 | 58 | 1015.6 |
| 20260502214513 | 73 | 281 | 4.3 | 7.8 | 0.00 | 0.00 | 0.00 | 58 | 1015.7 |
| 20260502214003 | 73 | 269 | 3.5 | 9.6 | 0.00 | 0.00 | 0.00 | 56 | 1015.7 |
| 20260502213503 | 72 | 288 | 3.5 | 9.6 | 0.00 | 0.00 | 0.00 | 57 | 1015.7 |
| 20260502213010 | 72 | 297 | 6.1 | 9.6 | 0.00 | 0.00 | 0.00 | 57 | 1015.8 |
| 20260502212503 | 72 | 299 | 3.5 | 9.6 | 0.00 | 0.00 | 0.00 | 56 | 1015.8 |
| 20260502212004 | 72 | 273 | 5.2 | 9.6 | 0.00 | 0.00 | 0.00 | 56 | 1015.9 |
| 20260502211509 | 73 | 263 | 4.3 | 8.7 | 0.00 | 0.00 | 0.00 | 56 | 1015.9 |
| 20260502211004 | 72 | 249 | 2.6 | 7.8 | 0.00 | 0.00 | 0.00 | 61 | 1015.9 |
| 20260502210503 | 72 | 238 | 2.6 | 8.7 | 0.00 | 0.00 | 0.00 | 60 | 1016.0 |
| 20260502210015 | 72 | 275 | 5.2 | 8.7 | 0.00 | 0.00 | 0.00 | 58 | 1016.0 |
| 20260502205504 | 72 | 261 | 3.5 | 8.7 | 0.00 | 0.00 | 0.00 | 58 | 1016.1 |
| 20260502205007 | 71 | 148 | 3.5 | 8.7 | 0.00 | 0.00 | 0.00 | 64 | 1016.0 |
| 20260502204518 | 71 | 156 | 4.3 | 7.8 | 0.00 | 0.00 | 0.00 | 61 | 1016.1 |
| 20260502204007 | 70 | 258 | 3.5 | 8.7 | 0.00 | 0.00 | 0.00 | 61 | 1016.1 |
| 20260502203507 | 71 | 264 | 4.3 | 8.7 | 0.00 | 0.00 | 0.00 | 62 | 1016.2 |
| 20260502203004 | 70 | 264 | 2.6 | 8.7 | 0.00 | 0.00 | 0.00 | 64 | 1016.3 |
| 20260502202503 | 70 | 236 | 4.3 | 8.7 | 0.00 | 0.00 | 0.00 | 63 | 1016.3 |
| 20260502202003 | 69 | 229 | 3.5 | 7.0 | 0.00 | 0.00 | 0.00 | 63 | 1016.4 |
| 20260502201515 | 70 | 244 | 2.6 | 8.7 | 0.00 | 0.00 | 0.00 | 65 | 1016.4 |
| 20260502201004 | 69 | 256 | 4.3 | 8.7 | 0.00 | 0.00 | 0.00 | 64 | 1016.5 |
| 20260502200504 | 68 | 257 | 3.5 | 7.8 | 0.00 | 0.00 | 0.00 | 68 | 1016.5 |
| 20260502200012 | 68 | 215 | 4.3 | 7.8 | 0.00 | 0.00 | 0.00 | 68 | 1016.7 |
| 20260502195506 | 68 | 214 | 1.7 | 6.1 | 0.00 | 0.00 | 0.00 | 69 | 1016.7 |
| 20260502195007 | 67 | 273 | 2.6 | 6.1 | 0.00 | 0.00 | 0.00 | 71 | 1016.7 |
| 20260502194516 | 67 | 240 | 1.7 | 6.1 | 0.00 | 0.00 | 0.00 | 68 | 1016.7 |
| 20260502194009 | 67 | 246 | 2.6 | 7.8 | 0.00 | 0.00 | 0.00 | 70 | 1016.7 |
| 20260502193507 | 67 | 222 | 3.5 | 7.8 | 0.00 | 0.00 | 0.00 | 68 | 1016.7 |
| 20260502193018 | 67 | 230 | 2.6 | 8.7 | 0.00 | 0.00 | 0.00 | 68 | 1016.6 |
| 20260502192508 | 67 | 300 | 1.7 | 8.7 | 0.00 | 0.00 | 0.00 | 69 | 1016.7 |
| 20260502192007 | 68 | 218 | 2.6 | 7.0 | 0.00 | 0.00 | 0.00 | 66 | 1016.6 |
| 20260502191508 | 68 | 257 | 1.7 | 8.7 | 0.00 | 0.00 | 0.00 | 68 | 1016.7 |
| 20260502191003 | 68 | 275 | 2.6 | 8.7 | 0.00 | 0.00 | 0.00 | 66 | 1016.7 |
| 20260502190503 | 68 | 281 | 3.5 | 7.0 | 0.00 | 0.00 | 0.00 | 67 | 1016.7 |
| 20260502190020 | 68 | 286 | 5.2 | 7.0 | 0.00 | 0.00 | 0.00 | 73 | 1016.8 |
| 20260502185504 | 67 | 274 | 1.7 | 7.8 | 0.00 | 0.00 | 0.00 | 72 | 1016.9 |
| 20260502185006 | 66 | 192 | 2.6 | 7.8 | 0.00 | 0.00 | 0.00 | 70 | 1016.9 |
| 20260502184524 | 66 | 232 | 2.6 | 6.1 | 0.00 | 0.00 | 0.00 | 71 | 1017.0 |
| 20260502184007 | 66 | 211 | 1.7 | 5.2 | 0.00 | 0.00 | 0.00 | 71 | 1017.1 |
| 20260502183508 | 65 | 284 | 2.6 | 5.2 | 0.00 | 0.00 | 0.00 | 72 | 1017.1 |
| 20260502183018 | 65 | 251 | 0.9 | 7.0 | 0.00 | 0.00 | 0.00 | 74 | 1017.2 |
| 20260502182504 | 65 | 329 | 2.6 | 7.0 | 0.00 | 0.00 | 0.00 | 72 | 1017.3 |
| 20260502182007 | 65 | 253 | 1.7 | 7.0 | 0.00 | 0.00 | 0.00 | 73 | 1017.4 |
| 20260502181521 | 64 | 306 | 1.7 | 7.0 | 0.00 | 0.00 | 0.00 | 74 | 1017.4 |
| 20260502181007 | 64 | 313 | 1.7 | 6.1 | 0.00 | 0.00 | 0.00 | 73 | 1017.4 |
| 20260502180503 | 64 | 323 | 2.6 | 6.1 | 0.00 | 0.00 | 0.00 | 73 | 1017.4 |
| 20260502170505 | 58 | 257 | 0.9 | 3.5 | 0.00 | 0.00 | 0.00 | 82 | 1017.8 |
| 20260502164005 | 56 | 308 | 1.7 | 3.5 | 0.00 | 0.00 | 0.00 | 84 | 1017.7 |
| 20260502163505 | 56 | 324 | 1.7 | 5.2 | 0.00 | 0.00 | 0.00 | 84 | 1017.7 |
| 20260502163018 | 56 | 328 | 0.9 | 5.2 | 0.00 | 0.00 | 0.00 | 84 | 1017.7 |
| 20260502162506 | 56 | 323 | 1.7 | 3.5 | 0.00 | 0.00 | 0.00 | 85 | 1017.7 |
| 20260502162009 | 55 | 286 | 1.7 | 3.5 | 0.00 | 0.00 | 0.00 | 85 | 1017.8 |
| 20260502161524 | 55 | 273 | 0.9 | 2.6 | 0.00 | 0.00 | 0.00 | 86 | 1017.6 |
| 20260502161009 | 55 | 234 | 0.0 | 3.5 | 0.00 | 0.00 | 0.00 | 86 | 1017.7 |
| 20260502160511 | 54 | 325 | 1.7 | 4.3 | 0.00 | 0.00 | 0.00 | 87 | 1017.6 |
| 20260502152009 | 52 | 295 | 3.5 | 6.1 | 0.00 | 0.00 | 0.00 | 89 | 1017.5 |
| 20260502151520 | 52 | 294 | 1.7 | 6.1 | 0.00 | 0.00 | 0.00 | 90 | 1017.6 |
| 20260502151007 | 52 | 286 | 1.7 | 3.5 | 0.00 | 0.00 | 0.00 | 91 | 1017.6 |
| 20260502150509 | 51 | 313 | 1.7 | 2.6 | 0.00 | 0.00 | 0.00 | 91 | 1017.6 |
| 20260502130507 | 49 | 287 | 1.7 | 2.6 | 0.00 | 0.00 | 0.00 | 90 | 1017.4 |
| 20260502123504 | 49 | 318 | 0.0 | 1.7 | 0.00 | 0.00 | 0.00 | 90 | 1017.8 |
| 20260502123008 | 49 | 313 | 0.0 | 1.7 | 0.00 | 0.00 | 0.00 | 90 | 1017.8 |
| 20260502122504 | 49 | 301 | 0.9 | 1.7 | 0.00 | 0.00 | 0.00 | 90 | 1017.8 |
| 20260502122004 | 49 | 22 | 0.0 | 1.7 | 0.00 | 0.00 | 0.00 | 89 | 1017.9 |
| 20260502121515 | 49 | 44 | 0.0 | 1.7 | 0.00 | 0.00 | 0.00 | 89 | 1017.8 |
| 20260502121006 | 49 | 44 | 0.0 | 1.7 | 0.00 | 0.00 | 0.00 | 89 | 1017.8 |
| 20260502120508 | 49 | 44 | 0.0 | 1.7 | 0.00 | 0.00 | 0.00 | 89 | 1017.8 |
| 20260502115508 | 49 | 163 | 0.0 | 1.7 | 0.00 | 0.00 | 0.00 | 89 | 1017.9 |
| 20260502115008 | 49 | 163 | 0.0 | 1.7 | 0.00 | 0.00 | 0.00 | 89 | 1017.9 |
| 20260502114522 | 49 | 163 | 0.0 | 1.7 | 0.00 | 0.00 | 0.00 | 89 | 1017.9 |
| 20260502114004 | 49 | 163 | 0.0 | 1.7 | 0.00 | 0.00 | 0.00 | 89 | 1017.8 |
| 20260502113505 | 49 | 163 | 0.0 | 1.7 | 0.00 | 0.00 | 0.00 | 89 | 1017.7 |
| 20260502113008 | 49 | 163 | 0.0 | 1.7 | 0.00 | 0.00 | 0.00 | 89 | 1017.5 |
| 20260502112502 | 49 | 163 | 0.0 | 1.7 | 0.00 | 0.00 | 0.00 | 89 | 1017.4 |
| 20260502112002 | 50 | 189 | 0.0 | 1.7 | 0.00 | 0.00 | 0.00 | 88 | 1017.4 |
| 20260502111510 | 50 | 252 | 0.0 | 1.7 | 0.00 | 0.00 | 0.00 | 88 | 1017.2 |
| 20260502111003 | 50 | 252 | 0.0 | 1.7 | 0.00 | 0.00 | 0.00 | 88 | 1017.2 |
| 20260502110507 | 50 | 325 | 0.0 | 1.7 | 0.00 | 0.00 | 0.00 | 88 | 1017.2 |
| 20260502110017 | 50 | 325 | 0.0 | 1.7 | 0.00 | 0.00 | 0.00 | 88 | 1017.1 |
| 20260502105508 | 50 | 329 | 0.0 | 1.7 | 0.00 | 0.00 | 0.00 | 88 | 1017.1 |
| 20260502105007 | 50 | 325 | 0.0 | 1.7 | 0.00 | 0.00 | 0.00 | 87 | 1017.2 |
| 20260502104521 | 50 | 325 | 0.0 | 1.7 | 0.00 | 0.00 | 0.00 | 87 | 1017.1 |
| 20260502104008 | 50 | 325 | 0.0 | 0.9 | 0.00 | 0.00 | 0.00 | 87 | 1017.1 |
| 20260502103508 | 50 | 345 | 0.0 | 0.9 | 0.00 | 0.00 | 0.00 | 87 | 1017.2 |
| 20260502103026 | 50 | 335 | 0.9 | 1.7 | 0.00 | 0.00 | 0.00 | 87 | 1017.2 |
| 20260502102504 | 50 | 331 | 0.0 | 1.7 | 0.00 | 0.00 | 0.00 | 87 | 1017.2 |
| 20260502102006 | 50 | 317 | 0.0 | 1.7 | 0.00 | 0.00 | 0.00 | 87 | 1017.2 |
| 20260502101507 | 50 | 315 | 0.9 | 1.7 | 0.00 | 0.00 | 0.00 | 87 | 1017.2 |
| 20260502101004 | 51 | 334 | 0.9 | 1.7 | 0.00 | 0.00 | 0.00 | 87 | 1017.3 |
| 20260502100504 | 51 | 312 | 0.9 | 0.9 | 0.00 | 0.00 | 0.00 | 86 | 1017.3 |
| 20260502091510 | 52 | 266 | 0.0 | 1.7 | 0.00 | 0.00 | 0.00 | 85 | 1017.2 |
| 20260502091006 | 52 | 266 | 0.0 | 1.7 | 0.00 | 0.00 | 0.00 | 85 | 1017.1 |
| 20260502090507 | 52 | 266 | 0.0 | 1.7 | 0.00 | 0.00 | 0.00 | 85 | 1017.2 |
| 20260502071522 | 53 | 108 | 0.0 | 1.7 | 0.00 | 0.00 | 0.00 | 81 | 1017.2 |
| 20260502071010 | 53 | 153 | 0.0 | 1.7 | 0.00 | 0.00 | 0.00 | 80 | 1017.2 |
| 20260502070512 | 53 | 153 | 0.0 | 1.7 | 0.00 | 0.00 | 0.00 | 80 | 1017.2 |
| 20260502070026 | 53 | 153 | 0.0 | 1.7 | 0.00 | 0.00 | 0.00 | 80 | 1017.1 |
| 20260502065513 | 53 | 94 | 0.0 | 1.7 | 0.00 | 0.00 | 0.00 | 80 | 1017.1 |
| 20260502065011 | 54 | 94 | 0.0 | 1.7 | 0.00 | 0.00 | 0.00 | 80 | 1017.0 |
| 20260502064528 | 54 | 104 | 0.0 | 1.7 | 0.00 | 0.00 | 0.00 | 80 | 1016.9 |
| 20260502064004 | 54 | 104 | 0.0 | 1.7 | 0.00 | 0.00 | 0.00 | 80 | 1017.0 |
| 20260502063507 | 54 | 84 | 0.9 | 1.7 | 0.00 | 0.00 | 0.00 | 79 | 1017.1 |
| 20260502063022 | 54 | 90 | 0.0 | 1.7 | 0.00 | 0.00 | 0.00 | 79 | 1017.0 |
| 20260502062511 | 54 | 34 | 0.0 | 1.7 | 0.00 | 0.00 | 0.00 | 78 | 1016.9 |
| 20260502062010 | 54 | 34 | 0.0 | 1.7 | 0.00 | 0.00 | 0.00 | 78 | 1016.8 |
| 20260502061522 | 54 | 28 | 0.0 | 1.7 | 0.00 | 0.00 | 0.00 | 76 | 1016.8 |
| 20260502061009 | 54 | 28 | 0.0 | 1.7 | 0.00 | 0.00 | 0.00 | 75 | 1016.8 |
| 20260502060510 | 55 | 5 | 0.0 | 1.7 | 0.00 | 0.00 | 0.00 | 76 | 1016.8 |
| 20260502060026 | 55 | 5 | 0.0 | 1.7 | 0.00 | 0.00 | 0.00 | 77 | 1016.8 |
| 20260502055507 | 55 | 5 | 0.0 | 1.7 | 0.00 | 0.00 | 0.00 | 77 | 1016.7 |
| 20260502055009 | 55 | 5 | 0.0 | 1.7 | 0.00 | 0.00 | 0.00 | 76 | 1016.8 |
| 20260502054529 | 55 | 5 | 0.0 | 1.7 | 0.00 | 0.00 | 0.00 | 77 | 1016.7 |
| 20260502054007 | 55 | 30 | 0.0 | 1.7 | 0.00 | 0.00 | 0.00 | 77 | 1016.8 |
| 20260502053510 | 55 | 32 | 0.0 | 1.7 | 0.00 | 0.00 | 0.00 | 76 | 1016.8 |
| 20260502053015 | 55 | 32 | 0.0 | 1.7 | 0.00 | 0.00 | 0.00 | 76 | 1016.7 |
| 20260502052508 | 55 | 28 | 0.0 | 1.7 | 0.00 | 0.00 | 0.00 | 75 | 1016.7 |
| 20260502052009 | 55 | 338 | 0.0 | 1.7 | 0.00 | 0.00 | 0.00 | 75 | 1016.6 |
| 20260502051527 | 55 | 288 | 0.9 | 1.7 | 0.00 | 0.00 | 0.00 | 75 | 1016.6 |
| 20260502051003 | 55 | 296 | 0.0 | 2.6 | 0.00 | 0.00 | 0.00 | 75 | 1016.6 |
| 20260502050503 | 56 | 288 | 0.0 | 2.6 | 0.00 | 0.00 | 0.00 | 76 | 1016.5 |
| 20260502050010 | 56 | 360 | 0.9 | 1.7 | 0.00 | 0.00 | 0.00 | 76 | 1016.4 |
| 20260502045504 | 56 | 311 | 0.0 | 1.7 | 0.00 | 0.00 | 0.00 | 75 | 1016.6 |
| 20260502045008 | 56 | 292 | 0.0 | 1.7 | 0.00 | 0.00 | 0.00 | 74 | 1016.6 |
| 20260502044509 | 56 | 292 | 0.0 | 1.7 | 0.00 | 0.00 | 0.00 | 75 | 1016.5 |
| 20260502044007 | 56 | 286 | 0.0 | 1.7 | 0.00 | 0.00 | 0.00 | 75 | 1016.4 |
| 20260502043505 | 56 | 290 | 0.9 | 1.7 | 0.00 | 0.00 | 0.00 | 75 | 1016.4 |
| 20260502043016 | 56 | 298 | 0.0 | 1.7 | 0.00 | 0.00 | 0.00 | 74 | 1016.5 |
| 20260502042509 | 56 | 285 | 0.9 | 1.7 | 0.00 | 0.00 | 0.00 | 74 | 1016.5 |
| 20260502042007 | 57 | 206 | 0.0 | 1.7 | 0.00 | 0.00 | 0.00 | 74 | 1016.5 |
| 20260502041520 | 57 | 198 | 0.0 | 1.7 | 0.00 | 0.00 | 0.00 | 74 | 1016.5 |
| 20260502041007 | 57 | 247 | 0.0 | 1.7 | 0.00 | 0.00 | 0.00 | 73 | 1016.4 |
| 20260502040503 | 57 | 275 | 0.9 | 1.7 | 0.00 | 0.00 | 0.00 | 74 | 1016.2 |
| 20260502040006 | 57 | 251 | 0.0 | 1.7 | 0.00 | 0.00 | 0.00 | 73 | 1016.2 |
| 20260502035503 | 58 | 232 | 0.9 | 0.9 | 0.00 | 0.00 | 0.00 | 73 | 1016.2 |
| 20260502035003 | 58 | 41 | 0.0 | 1.7 | 0.00 | 0.00 | 0.00 | 72 | 1016.1 |
| 20260502034507 | 58 | 126 | 0.0 | 1.7 | 0.00 | 0.00 | 0.00 | 72 | 1016.2 |